#�ϑ�����,���ϕ���,���ϕ���,�ő啗��,�ő啗����������,�ő�u�ԕ���,�ő�u�ԕ�����������
#(�N����),(m/s)   ,(16����),(m/s)   ,(16����)        ,(m/s)       ,(16����)            
2018/7/29 0:01,5.8,15,5.9,14,12.4,14
2018/7/29 0:02,6.5,15,6.5,15,14.4,15
2018/7/29 0:03,6.5,15,6.6,15,16.5,16
2018/7/29 0:04,6.7,15,6.7,15,17.1,16
2018/7/29 0:05,7.1,15,7.1,15,15,15
2018/7/29 0:06,7.2,15,7.2,15,11.6,12
2018/7/29 0:07,7.3,15,7.3,15,13.5,15
2018/7/29 0:08,7.6,15,7.6,15,12.7,16
2018/7/29 0:09,7.6,15,7.7,15,14.9,15
2018/7/29 0:10,7.6,15,7.6,15,10.8,13
2018/7/29 0:11,7.6,15,7.6,15,9.8,14
2018/7/29 0:12,7.3,15,7.7,15,11,16
2018/7/29 0:13,7.2,15,7.3,15,12.2,16
2018/7/29 0:14,6.9,15,7.3,15,12.3,15
2018/7/29 0:15,7.2,15,7.3,15,17.1,15
2018/7/29 0:16,7.5,15,7.5,15,12.6,16
2018/7/29 0:17,7.2,15,7.6,15,7.5,16
2018/7/29 0:18,7,15,7.1,15,12.2,1
2018/7/29 0:19,7.3,15,7.3,15,17.9,15
2018/7/29 0:20,7.5,15,7.5,15,15.6,13
2018/7/29 0:21,7.6,15,7.6,15,13,15
2018/7/29 0:22,7.5,15,7.6,15,8.4,13
2018/7/29 0:23,7.3,15,7.5,15,9.7,16
2018/7/29 0:24,7.5,15,7.5,15,12.3,16
2018/7/29 0:25,7,15,7.4,15,10.3,15
2018/7/29 0:26,7.1,15,7.1,15,19,15
2018/7/29 0:27,7.8,15,7.8,15,17.4,15
2018/7/29 0:28,8,15,8.1,15,16.3,15
2018/7/29 0:29,7.6,15,8,15,11.7,15
2018/7/29 0:30,7.7,15,7.7,15,16.7,14
2018/7/29 0:31,8,15,8,15,19.2,15
2018/7/29 0:32,8.4,15,8.4,15,16.9,15
2018/7/29 0:33,8.6,15,8.6,15,15.1,14
2018/7/29 0:34,8.4,15,8.5,15,11.9,15
2018/7/29 0:35,9,15,9,15,21,15
2018/7/29 0:36,9,15,9,15,18.8,15
2018/7/29 0:37,9.1,15,9.2,15,20.5,16
2018/7/29 0:38,9.3,15,9.3,15,18.7,14
2018/7/29 0:39,9.7,15,9.7,15,21,14
2018/7/29 0:40,9.7,15,9.8,15,18.1,15
2018/7/29 0:41,9.5,15,9.7,15,17.1,15
2018/7/29 0:42,9.3,15,9.5,15,11.7,16
2018/7/29 0:43,9.2,15,9.3,15,11.1,16
2018/7/29 0:44,9.3,15,9.3,15,12.2,16
2018/7/29 0:45,8.9,15,9.2,15,17.2,14
2018/7/29 0:46,9,15,9.2,15,18,16
2018/7/29 0:47,8.7,15,8.9,15,13.4,16
2018/7/29 0:48,8.2,15,8.7,15,11.3,15
2018/7/29 0:49,8.1,15,8.2,15,16,15
2018/7/29 0:50,7.8,15,8.1,15,14.1,14
2018/7/29 0:51,7.3,15,7.8,15,16,14
2018/7/29 0:52,7.3,15,7.3,15,16.9,16
2018/7/29 0:53,7.9,15,7.9,15,20.9,14
2018/7/29 0:54,8,15,8.1,15,14.8,15
2018/7/29 0:55,8,15,8.1,15,17.9,15
2018/7/29 0:56,8,15,8.1,15,17.5,13
2018/7/29 0:57,7.7,15,8,15,10.5,15
2018/7/29 0:58,7.6,15,7.7,15,11.6,15
2018/7/29 0:59,7.3,15,7.6,15,9.1,16
2018/7/29 1:00,7.3,15,7.4,15,13.2,15
2018/7/29 1:01,7.8,15,7.8,15,19.6,15
2018/7/29 1:02,8,15,8.1,15,14.4,16
2018/7/29 1:03,7.6,15,7.9,15,13.9,16
2018/7/29 1:04,7.8,15,7.8,15,19.4,1
2018/7/29 1:05,7.5,15,7.8,15,15,15
2018/7/29 1:06,7.6,15,7.7,15,16.6,12
2018/7/29 1:07,7.8,15,7.8,15,18.8,13
2018/7/29 1:08,8.7,15,8.7,15,19.8,15
2018/7/29 1:09,8.9,15,8.9,15,17.4,16
2018/7/29 1:10,9.2,15,9.2,15,19.2,15
2018/7/29 1:11,9.1,15,9.3,15,15.1,16
2018/7/29 1:12,8.9,15,9.1,15,17.5,15
2018/7/29 1:13,9,14,9.2,15,16.1,12
2018/7/29 1:14,8.8,14,9,15,12.8,15
2018/7/29 1:15,9,14,9,15,17,15
2018/7/29 1:16,8.6,15,9,15,11.6,15
2018/7/29 1:17,8.6,15,8.7,15,15,14
2018/7/29 1:18,7.9,15,8.5,15,15,13
2018/7/29 1:19,7.9,15,7.9,15,16,16
2018/7/29 1:20,7.5,15,7.9,15,13.9,15
2018/7/29 1:21,7.6,15,7.7,14,22.1,16
2018/7/29 1:22,8,15,8,14,23.7,16
2018/7/29 1:23,8.4,15,8.4,14,19.5,15
2018/7/29 1:24,8.5,15,8.5,14,15,15
2018/7/29 1:25,8.5,15,8.6,14,17.6,16
2018/7/29 1:26,9,15,9,15,16.9,15
2018/7/29 1:27,9,15,9,15,17.2,15
2018/7/29 1:28,9.1,15,9.1,15,14.3,15
2018/7/29 1:29,9.3,15,9.4,15,20.9,16
2018/7/29 1:30,9.5,15,9.5,15,21.3,15
2018/7/29 1:31,9.2,15,9.6,15,18.8,14
2018/7/29 1:32,8.6,15,9.1,15,10.6,3
2018/7/29 1:33,7.8,15,8.5,15,9.1,1
2018/7/29 1:34,7.9,15,8,15,15.7,15
2018/7/29 1:35,7.5,16,7.8,15,12.3,16
2018/7/29 1:36,7.2,16,7.5,15,16.6,15
2018/7/29 1:37,7.2,16,7.3,15,14.1,16
2018/7/29 1:38,7.1,16,7.2,15,16.6,16
2018/7/29 1:39,6.9,16,7.2,15,14.5,15
2018/7/29 1:40,7,16,7.1,15,14.4,15
2018/7/29 1:41,6.6,16,6.8,15,9.4,16
2018/7/29 1:42,6.9,16,6.9,15,14.7,15
2018/7/29 1:43,6.9,16,6.9,15,8.5,14
2018/7/29 1:44,6.5,16,6.9,15,12.5,14
2018/7/29 1:45,7,16,7,16,20.2,16
2018/7/29 1:46,7.2,16,7.2,16,20.2,15
2018/7/29 1:47,7.5,16,7.5,16,21.1,15
2018/7/29 1:48,8.1,16,8.1,16,20.2,16
2018/7/29 1:49,8.6,16,8.6,16,21.1,15
2018/7/29 1:50,8.8,16,8.8,16,22.2,15
2018/7/29 1:51,9.3,15,9.3,15,16.7,14
2018/7/29 1:52,9.7,15,9.7,15,19.6,15
2018/7/29 1:53,10.1,15,10.1,15,18.5,16
2018/7/29 1:54,10.5,15,10.5,15,15.2,15
2018/7/29 1:55,10.7,15,10.8,15,17.5,14
2018/7/29 1:56,10.7,15,10.8,15,17.9,15
2018/7/29 1:57,10.4,15,10.6,15,12.6,15
2018/7/29 1:58,9.8,15,10.3,15,15.3,15
2018/7/29 1:59,9.3,15,9.8,15,15.6,16
2018/7/29 2:00,9.4,15,9.4,15,22,16
2018/7/29 2:01,9.6,15,9.8,15,17.8,14
2018/7/29 2:02,9.8,15,9.9,15,22.9,16
2018/7/29 2:03,10,15,10,15,21.3,15
2018/7/29 2:04,10.3,15,10.3,15,22.4,16
2018/7/29 2:05,10,15,10.3,15,21,16
2018/7/29 2:06,10.4,15,10.4,15,21.5,16
2018/7/29 2:07,10.7,15,10.7,15,16.7,16
2018/7/29 2:08,11.4,15,11.4,15,26.4,15
2018/7/29 2:09,12,15,12,15,24.5,15
2018/7/29 2:10,12.2,15,12.3,15,25.2,15
2018/7/29 2:11,12.5,15,12.5,15,22.3,14
2018/7/29 2:12,12.2,15,12.6,15,19.9,16
2018/7/29 2:13,12.3,15,12.4,15,19,14
2018/7/29 2:14,12,15,12.3,15,20.1,15
2018/7/29 2:15,11.9,15,11.9,15,15.1,15
2018/7/29 2:16,11.8,15,12,15,23.1,16
2018/7/29 2:17,11.6,16,11.9,15,16.2,16
2018/7/29 2:18,11.1,16,11.7,15,14.3,16
2018/7/29 2:19,10.3,16,10.9,15,16.6,16
2018/7/29 2:20,9.9,16,10.4,15,16,16
2018/7/29 2:21,9.4,16,9.8,15,11.6,16
2018/7/29 2:22,9,16,9.3,15,14.1,2
2018/7/29 2:23,8.5,16,9.1,15,13.6,1
2018/7/29 2:24,8.6,16,8.6,15,20.4,16
2018/7/29 2:25,8.8,16,8.9,15,13.8,1
2018/7/29 2:26,8.4,16,8.8,15,14.3,16
2018/7/29 2:27,8.2,16,8.5,16,17.5,16
2018/7/29 2:28,8.2,16,8.4,16,15.2,15
2018/7/29 2:29,8.4,16,8.4,16,16.3,15
2018/7/29 2:30,8.2,16,8.3,16,15.7,15
2018/7/29 2:31,8.3,16,8.3,16,12.6,16
2018/7/29 2:32,8.2,16,8.3,16,14.7,16
2018/7/29 2:33,8.3,16,8.3,16,15.6,14
2018/7/29 2:34,7.9,16,8.3,16,11.5,1
2018/7/29 2:35,7.6,16,7.8,16,12.3,16
2018/7/29 2:36,7.6,16,7.6,16,14.4,16
2018/7/29 2:37,7.4,16,7.5,16,13.8,1
2018/7/29 2:38,7.3,16,7.4,16,12.8,16
2018/7/29 2:39,7,16,7.3,16,11.1,16
2018/7/29 2:40,7,16,7,16,14.3,16
2018/7/29 2:41,6.9,16,7,16,11.3,1
2018/7/29 2:42,6.7,16,6.9,16,11.4,16
2018/7/29 2:43,7,16,7,16,15.9,1
2018/7/29 2:44,7.2,16,7.2,16,17.2,1
2018/7/29 2:45,7.7,16,7.7,16,24,1
2018/7/29 2:46,7.7,16,7.9,16,14.1,15
2018/7/29 2:47,8.2,16,8.2,16,14.9,15
2018/7/29 2:48,8.5,16,8.5,16,17.1,1
2018/7/29 2:49,8.6,16,8.7,16,14,15
2018/7/29 2:50,8.5,16,8.6,16,11.4,1
2018/7/29 2:51,8.7,16,8.7,16,15.1,16
2018/7/29 2:52,8.8,16,8.8,16,10.8,16
2018/7/29 2:53,8.8,16,8.9,16,13.8,2
2018/7/29 2:54,8.4,16,8.7,16,10,16
2018/7/29 2:55,8,16,8.3,16,15.3,15
2018/7/29 2:56,7.7,16,8,16,10.7,15
2018/7/29 2:57,7.5,16,7.7,16,12.8,14
2018/7/29 2:58,7.2,16,7.5,16,12.5,15
2018/7/29 2:59,7,16,7.2,16,10.2,1
2018/7/29 3:00,7.3,16,7.3,16,17.8,16
2018/7/29 3:01,7.4,16,7.5,16,16.6,1
2018/7/29 3:02,7.3,16,7.4,16,10.3,1
2018/7/29 3:03,6.9,16,7.2,16,8.9,1
2018/7/29 3:04,6.9,16,7,16,13.4,1
2018/7/29 3:05,6.6,16,6.9,16,10.3,1
2018/7/29 3:06,6.8,16,6.8,16,14.7,16
2018/7/29 3:07,6.5,16,6.8,16,10.9,16
2018/7/29 3:08,6.6,16,6.6,16,16.8,1
2018/7/29 3:09,7.1,16,7.1,16,24.5,1
2018/7/29 3:10,6.9,16,7.2,16,15,16
2018/7/29 3:11,6.7,16,6.9,16,11.9,15
2018/7/29 3:12,6.8,16,6.8,16,12.7,15
2018/7/29 3:13,7.1,16,7.1,16,14.2,16
2018/7/29 3:14,7.8,16,7.8,16,16.2,15
2018/7/29 3:15,8.2,16,8.2,16,18.1,16
2018/7/29 3:16,8.4,16,8.5,16,26.2,16
2018/7/29 3:17,8.6,16,8.6,16,12.6,15
2018/7/29 3:18,8.5,16,8.7,16,12.4,16
2018/7/29 3:19,8,16,8.5,16,10.3,16
2018/7/29 3:20,8,16,8,16,13.2,16
2018/7/29 3:21,8.1,16,8.1,16,12.8,2
2018/7/29 3:22,8.2,16,8.3,16,13.8,16
2018/7/29 3:23,8,16,8.3,16,17,14
2018/7/29 3:24,8.1,16,8.2,16,18.1,15
2018/7/29 3:25,8.1,16,8.2,16,17.5,15
2018/7/29 3:26,8.1,16,8.2,16,16.1,14
2018/7/29 3:27,8.4,16,8.5,16,18,16
2018/7/29 3:28,8.5,16,8.6,16,14.9,16
2018/7/29 3:29,8.6,16,8.7,16,13,14
2018/7/29 3:30,8.8,16,8.9,16,16.3,15
2018/7/29 3:31,8.8,16,8.8,16,16.5,15
2018/7/29 3:32,9.2,16,9.2,16,23.7,15
2018/7/29 3:33,9.2,16,9.2,16,11.6,1
2018/7/29 3:34,9,16,9.1,16,18,1
2018/7/29 3:35,8.5,16,8.9,16,8.4,15
2018/7/29 3:36,8.3,16,8.6,16,15,2
2018/7/29 3:37,7.8,16,8.1,16,11.3,15
2018/7/29 3:38,8.1,16,8.1,16,15.1,16
2018/7/29 3:39,8.2,16,8.2,16,14.4,16
2018/7/29 3:40,7.6,16,8.1,16,7.8,15
2018/7/29 3:41,7.5,16,7.7,16,16.3,16
2018/7/29 3:42,7,16,7.4,16,10.1,1
2018/7/29 3:43,6.9,16,7,16,11.5,2
2018/7/29 3:44,6.9,16,7,16,14.2,16
2018/7/29 3:45,7.1,16,7.1,16,11.3,16
2018/7/29 3:46,7,16,7.1,16,9.4,1
2018/7/29 3:47,7,16,7.1,16,10.9,15
2018/7/29 3:48,6.6,16,6.9,16,12.7,16
2018/7/29 3:49,6.5,16,6.6,16,13.2,15
2018/7/29 3:50,6.8,16,6.8,16,11.5,15
2018/7/29 3:51,6.6,16,6.9,16,13.6,16
2018/7/29 3:52,6.7,16,6.8,16,10,16
2018/7/29 3:53,6.9,16,6.9,16,13.8,16
2018/7/29 3:54,6.4,16,6.9,16,9.5,1
2018/7/29 3:55,6.1,16,6.3,16,11.1,15
2018/7/29 3:56,6.3,16,6.3,16,14,16
2018/7/29 3:57,6.3,16,6.4,16,12.7,16
2018/7/29 3:58,6.2,16,6.4,16,11.6,16
2018/7/29 3:59,6.5,16,6.5,16,14,16
2018/7/29 4:00,6.6,16,6.6,16,11.7,1
2018/7/29 4:01,7.1,16,7.1,16,15.9,15
2018/7/29 4:02,7.2,16,7.2,16,14.3,16
2018/7/29 4:03,7.5,16,7.5,16,17.6,16
2018/7/29 4:04,8.1,16,8.1,16,16.8,15
2018/7/29 4:05,8.8,16,8.8,16,19.2,15
2018/7/29 4:06,8.7,16,8.8,16,14,15
2018/7/29 4:07,8.7,16,8.7,16,11,15
2018/7/29 4:08,9,16,9,16,14.3,16
2018/7/29 4:09,9,16,9.2,16,15.4,1
2018/7/29 4:10,8.7,16,8.9,16,12.2,16
2018/7/29 4:11,8.4,16,8.6,16,13.3,15
2018/7/29 4:12,8.2,16,8.3,16,12.8,1
2018/7/29 4:13,7.9,16,8.3,16,16.5,15
2018/7/29 4:14,7.4,16,7.8,16,13.3,15
2018/7/29 4:15,7,16,7.3,16,11.8,16
2018/7/29 4:16,7,16,7.1,16,15.1,16
2018/7/29 4:17,7.1,16,7.1,16,11.7,14
2018/7/29 4:18,6.8,16,7.1,16,12.3,16
2018/7/29 4:19,6.7,16,6.8,16,15.7,16
2018/7/29 4:20,6.5,16,6.7,16,7.7,1
2018/7/29 4:21,6.4,16,6.5,16,17.9,14
2018/7/29 4:22,6.5,16,6.5,16,15.4,16
2018/7/29 4:23,6.3,16,6.4,16,8.7,15
2018/7/29 4:24,6.5,16,6.6,16,14.4,15
2018/7/29 4:25,6.5,16,6.5,16,11.1,2
2018/7/29 4:26,6.2,16,6.6,16,10.7,2
2018/7/29 4:27,6.1,16,6.2,16,11,16
2018/7/29 4:28,5.9,16,6.1,16,10.1,1
2018/7/29 4:29,5.5,16,5.9,16,6.1,16
2018/7/29 4:30,5.4,16,5.5,16,10.8,16
2018/7/29 4:31,5.7,16,5.7,16,12.4,15
2018/7/29 4:32,5.3,16,5.6,16,9.5,16
2018/7/29 4:33,5.4,16,5.4,16,12.8,15
2018/7/29 4:34,5.2,16,5.4,16,9.7,16
2018/7/29 4:35,5.3,16,5.3,16,12.7,2
2018/7/29 4:36,5.5,16,5.5,16,13.4,16
2018/7/29 4:37,5.5,16,5.6,16,9.7,2
2018/7/29 4:38,5.5,16,5.6,16,6.5,2
2018/7/29 4:39,5.8,16,5.8,16,10.6,2
2018/7/29 4:40,5.9,16,6.1,16,10.6,1
2018/7/29 4:41,5.7,16,5.9,16,7.2,15
2018/7/29 4:42,5.7,16,5.7,16,9.4,16
2018/7/29 4:43,5.4,16,5.7,16,6.2,16
2018/7/29 4:44,5.1,16,5.4,16,6.5,16
2018/7/29 4:45,4.7,16,5,16,13.2,16
2018/7/29 4:46,4.4,16,4.6,16,12.8,16
2018/7/29 4:47,4.2,16,4.4,16,5.6,16
2018/7/29 4:48,4.2,16,4.2,16,11.5,15
2018/7/29 4:49,4.3,16,4.5,16,14.3,16
2018/7/29 4:50,4.3,16,4.3,16,9.3,15
2018/7/29 4:51,4.7,16,4.7,16,14,16
2018/7/29 4:52,5,16,5,16,14.2,1
2018/7/29 4:53,5.3,16,5.3,16,11.6,1
2018/7/29 4:54,5.6,16,5.6,16,6.8,16
2018/7/29 4:55,5.5,16,5.6,16,6.1,1
2018/7/29 4:56,5.4,16,5.5,16,8.1,1
2018/7/29 4:57,5.6,16,5.6,16,8.4,15
2018/7/29 4:58,6,16,6,16,12.5,15
2018/7/29 4:59,6,16,6,16,11,16
2018/7/29 5:00,5.9,16,6,16,11.7,16
2018/7/29 5:01,5.6,16,5.9,16,8.1,16
2018/7/29 5:02,5.2,16,5.5,16,8.6,15
2018/7/29 5:03,5,16,5.1,16,8.2,15
2018/7/29 5:04,5.2,16,5.2,16,10.7,16
2018/7/29 5:05,5.5,16,5.5,16,10.6,16
2018/7/29 5:06,6,16,6,16,14.7,16
2018/7/29 5:07,6.7,16,6.7,16,19.4,16
2018/7/29 5:08,6.6,16,6.8,16,11.7,1
2018/7/29 5:09,6.4,16,6.6,16,9.7,16
2018/7/29 5:10,6.4,16,6.4,16,8.6,2
2018/7/29 5:11,6.6,16,6.6,16,12.4,1
2018/7/29 5:12,6.9,16,6.9,16,14.2,16
2018/7/29 5:13,7.2,16,7.2,16,12.4,1
2018/7/29 5:14,7.2,16,7.3,16,11.5,15
2018/7/29 5:15,7.6,16,7.6,16,17.2,16
2018/7/29 5:16,7.8,16,7.8,16,17.6,16
2018/7/29 5:17,7.6,16,7.8,16,16.5,16
2018/7/29 5:18,7.4,16,7.6,16,15.4,16
2018/7/29 5:19,7.9,16,7.9,16,21.1,15
2018/7/29 5:20,8.3,16,8.3,16,18.1,16
2018/7/29 5:21,8.4,16,8.4,16,11.3,15
2018/7/29 5:22,8.7,16,8.7,16,15.7,16
2018/7/29 5:23,9,16,9.1,16,17.6,1
2018/7/29 5:24,9.4,16,9.4,16,17.2,16
2018/7/29 5:25,9,16,9.4,16,14.9,15
2018/7/29 5:26,9,16,9.1,16,15.2,16
2018/7/29 5:27,8.7,16,9,16,12.2,1
2018/7/29 5:28,8.9,16,8.9,16,13.4,15
2018/7/29 5:29,8.7,16,9,16,14.7,16
2018/7/29 5:30,8.9,16,8.9,16,17.6,16
2018/7/29 5:31,8.9,16,9,16,20.2,1
2018/7/29 5:32,8.8,16,9,16,13.4,16
2018/7/29 5:33,8.9,16,8.9,16,15.7,16
2018/7/29 5:34,8.7,16,9,16,13.9,16
2018/7/29 5:35,8.9,16,9.1,16,16.2,15
2018/7/29 5:36,8.6,16,8.8,16,12.4,1
2018/7/29 5:37,8.6,16,8.6,16,17.9,2
2018/7/29 5:38,8.5,16,8.6,16,11.8,16
2018/7/29 5:39,8.8,16,8.8,16,18.4,16
2018/7/29 5:40,8.5,16,8.9,16,16,16
2018/7/29 5:41,8.2,16,8.4,16,9.9,16
2018/7/29 5:42,8.1,16,8.2,16,10.9,16
2018/7/29 5:43,7.9,16,8.1,16,13.5,16
2018/7/29 5:44,8,16,8,16,13.1,16
2018/7/29 5:45,7.7,16,8,16,13.5,16
2018/7/29 5:46,7.6,16,7.7,16,11.5,1
2018/7/29 5:47,7.7,16,7.7,16,14.4,16
2018/7/29 5:48,7.7,16,7.9,16,17,16
2018/7/29 5:49,7.2,16,7.7,16,13.8,1
2018/7/29 5:50,7.1,16,7.1,16,12.3,15
2018/7/29 5:51,7.1,16,7.1,16,9.1,16
2018/7/29 5:52,7.2,16,7.3,16,14.1,16
2018/7/29 5:53,6.9,16,7.2,16,10.5,15
2018/7/29 5:54,6.6,16,6.8,16,13.2,1
2018/7/29 5:55,6.6,16,6.6,16,10.6,15
2018/7/29 5:56,6.8,16,6.8,16,13.4,1
2018/7/29 5:57,6.8,16,7,16,16,16
2018/7/29 5:58,6.7,16,6.7,16,13.9,16
2018/7/29 5:59,6.6,16,6.7,16,7.2,2
2018/7/29 6:00,6.6,16,6.7,16,11,2
2018/7/29 6:01,6.6,16,6.6,16,11,1
2018/7/29 6:02,6.1,16,6.6,16,8.7,1
2018/7/29 6:03,6.4,16,6.4,16,14.2,1
2018/7/29 6:04,6.3,16,6.4,16,10,1
2018/7/29 6:05,6.2,16,6.4,16,10.9,1
2018/7/29 6:06,6.1,16,6.2,16,14.3,16
2018/7/29 6:07,6.1,16,6.2,16,12.1,1
2018/7/29 6:08,6,1,6.1,16,8.6,16
2018/7/29 6:09,6.2,1,6.2,16,11.8,16
2018/7/29 6:10,6.3,1,6.3,16,12.5,16
2018/7/29 6:11,6.2,1,6.4,16,9.1,1
2018/7/29 6:12,6.1,1,6.2,16,7.6,15
2018/7/29 6:13,5.9,1,6.1,16,11.9,3
2018/7/29 6:14,6,1,6,16,14.9,16
2018/7/29 6:15,6.1,1,6.1,1,13.1,16
2018/7/29 6:16,6,1,6.1,1,10.7,1
2018/7/29 6:17,5.8,1,6,1,9,2
2018/7/29 6:18,6.3,1,6.3,1,20.5,2
2018/7/29 6:19,6.4,1,6.5,1,16.8,1
2018/7/29 6:20,6,1,6.4,1,7.5,1
2018/7/29 6:21,5.9,1,6,1,7.4,2
2018/7/29 6:22,6,1,6,1,10.7,1
2018/7/29 6:23,6.4,1,6.4,1,13.3,2
2018/7/29 6:24,6.6,1,6.7,1,15,4
2018/7/29 6:25,6.7,1,6.7,1,10.6,1
2018/7/29 6:26,6.5,1,6.7,1,8.4,1
2018/7/29 6:27,6.6,1,6.7,1,8.9,15
2018/7/29 6:28,6.5,1,6.7,1,15.2,2
2018/7/29 6:29,6.2,1,6.4,1,10.2,2
2018/7/29 6:30,6.4,1,6.4,1,10.9,2
2018/7/29 6:31,6.9,1,6.9,1,13.9,2
2018/7/29 6:32,7.2,1,7.2,1,16.6,2
2018/7/29 6:33,6.8,1,7.2,1,10,1
2018/7/29 6:34,6.5,1,6.8,1,10.8,2
2018/7/29 6:35,6.4,1,6.5,1,9,15
2018/7/29 6:36,6.6,1,6.6,1,11.9,1
2018/7/29 6:37,6.8,1,6.8,1,16.5,2
2018/7/29 6:38,6.6,1,6.9,1,13.8,1
2018/7/29 6:39,6.8,1,6.8,1,12.6,2
2018/7/29 6:40,6.7,1,6.8,1,12.5,15
2018/7/29 6:41,6.6,1,6.7,1,15.3,16
2018/7/29 6:42,6.7,1,6.7,1,20.7,2
2018/7/29 6:43,6.9,1,6.9,1,11.1,16
2018/7/29 6:44,7,1,7,1,12.3,15
2018/7/29 6:45,7.4,1,7.4,1,15.3,1
2018/7/29 6:46,7.5,1,7.6,1,14.2,1
2018/7/29 6:47,7.4,1,7.5,1,12.1,1
2018/7/29 6:48,7.4,1,7.4,1,11,1
2018/7/29 6:49,7.4,1,7.4,1,15.1,1
2018/7/29 6:50,7.6,1,7.6,1,9.8,16
2018/7/29 6:51,7.4,1,7.6,1,11.1,1
2018/7/29 6:52,6.9,1,7.4,1,11.6,16
2018/7/29 6:53,6.8,1,6.8,1,16.6,15
2018/7/29 6:54,6.9,1,6.9,1,15.2,16
2018/7/29 6:55,6.7,1,6.8,1,17.1,2
2018/7/29 6:56,6.6,1,6.7,1,11.8,1
2018/7/29 6:57,6.5,1,6.6,1,11.5,3
2018/7/29 6:58,6.5,1,6.6,1,11.9,3
2018/7/29 6:59,6.4,1,6.7,1,11.9,2
2018/7/29 7:00,6.5,1,6.6,1,11.6,2
2018/7/29 7:01,6.6,1,6.6,1,12.1,1
2018/7/29 7:02,6.7,1,6.7,1,11.4,2
2018/7/29 7:03,6.8,1,7,1,11.3,1
2018/7/29 7:04,6.6,1,6.7,1,11.1,2
2018/7/29 7:05,6.2,1,6.6,1,9.3,1
2018/7/29 7:06,6.3,1,6.3,1,10.5,15
2018/7/29 7:07,6.5,1,6.5,1,14.9,16
2018/7/29 7:08,6.5,1,6.5,1,11.3,16
2018/7/29 7:09,6.3,1,6.4,1,9.8,2
2018/7/29 7:10,6,1,6.2,1,8.1,1
2018/7/29 7:11,6,1,6,1,9.9,3
2018/7/29 7:12,6,1,6.1,1,13.3,2
2018/7/29 7:13,5.7,1,5.9,1,8.3,16
2018/7/29 7:14,5.7,1,5.8,1,10.1,2
2018/7/29 7:15,5.7,1,5.7,1,8.3,1
2018/7/29 7:16,5.5,1,5.7,1,9.8,2
2018/7/29 7:17,5.1,1,5.4,1,7.9,1
2018/7/29 7:18,5,1,5.1,1,10.3,2
2018/7/29 7:19,5,2,5,1,7.9,16
2018/7/29 7:20,5.1,2,5.1,1,11.7,3
2018/7/29 7:21,5.2,2,5.2,1,10.9,3
2018/7/29 7:22,5.3,2,5.3,1,13.1,2
2018/7/29 7:23,5.6,2,5.6,1,17.5,1
2018/7/29 7:24,5.7,2,5.7,1,10.3,1
2018/7/29 7:25,5.8,2,5.9,2,10.2,3
2018/7/29 7:26,5.9,2,5.9,2,11.8,1
2018/7/29 7:27,6.2,2,6.2,2,14.2,3
2018/7/29 7:28,6.1,2,6.2,2,8.7,2
2018/7/29 7:29,6,2,6.1,2,7.5,1
2018/7/29 7:30,6,2,6,2,10.9,2
2018/7/29 7:31,5.9,2,6,2,9.8,1
2018/7/29 7:32,5.9,2,6,2,10.1,3
2018/7/29 7:33,5.6,2,5.9,2,10.1,2
2018/7/29 7:34,5.4,2,5.5,2,9.4,2
2018/7/29 7:35,5.6,2,5.6,2,14.5,2
2018/7/29 7:36,5.7,2,5.7,2,11,2
2018/7/29 7:37,5.7,2,5.7,2,15.8,2
2018/7/29 7:38,6.2,2,6.2,2,16,1
2018/7/29 7:39,6.8,2,6.8,2,15.6,3
2018/7/29 7:40,6.8,2,6.9,2,14,2
2018/7/29 7:41,7,2,7,2,14.5,2
2018/7/29 7:42,7.3,2,7.3,2,15.2,3
2018/7/29 7:43,7.6,2,7.6,2,13.5,1
2018/7/29 7:44,8,2,8,2,15.2,3
2018/7/29 7:45,8,2,8,2,10.1,3
2018/7/29 7:46,8,2,8,2,12.3,3
2018/7/29 7:47,8,2,8.2,2,13.4,2
2018/7/29 7:48,7.7,2,8.1,2,12.8,3
2018/7/29 7:49,7.3,2,7.7,2,10.8,2
2018/7/29 7:50,7.7,2,7.7,2,16.6,1
2018/7/29 7:51,7.7,2,7.7,2,12.3,3
2018/7/29 7:52,7.5,2,7.8,2,10.2,3
2018/7/29 7:53,7.1,2,7.5,2,10.7,2
2018/7/29 7:54,7,2,7.1,2,12.7,3
2018/7/29 7:55,7.2,2,7.2,2,14.1,4
2018/7/29 7:56,7.3,2,7.3,2,13.3,3
2018/7/29 7:57,7,3,7.3,2,9.3,3
2018/7/29 7:58,7,3,7,2,11.9,3
2018/7/29 7:59,7.1,3,7.1,2,9.8,3
2018/7/29 8:00,6.8,3,7,2,9.9,2
2018/7/29 8:01,6.6,3,6.8,2,11.6,4
2018/7/29 8:02,6.6,3,6.7,2,10.2,4
2018/7/29 8:03,6.8,3,6.8,2,9.9,3
2018/7/29 8:04,6.4,3,6.7,2,9.3,4
2018/7/29 8:05,6.3,3,6.4,2,9.3,2
2018/7/29 8:06,6,3,6.2,2,12.8,1
2018/7/29 8:07,6.5,3,6.5,3,13.4,3
2018/7/29 8:08,6.6,3,6.6,3,11.5,3
2018/7/29 8:09,6.6,3,6.7,3,10.9,3
2018/7/29 8:10,6.7,3,6.7,3,9.5,3
2018/7/29 8:11,6.6,3,6.7,3,10.7,2
2018/7/29 8:12,6.4,3,6.5,3,8.9,3
2018/7/29 8:13,6.3,3,6.5,3,11.1,4
2018/7/29 8:14,6.5,3,6.5,3,11.6,3
2018/7/29 8:15,6.9,3,6.9,3,14.1,4
2018/7/29 8:16,6.9,3,6.9,3,10.7,3
2018/7/29 8:17,6.5,3,6.9,3,8.5,3
2018/7/29 8:18,6.3,3,6.4,3,9.1,3
2018/7/29 8:19,6.1,3,6.3,3,9.8,2
2018/7/29 8:20,6.1,3,6.2,3,11,2
2018/7/29 8:21,6.2,3,6.2,3,11.4,4
2018/7/29 8:22,6.3,3,6.3,3,10.1,3
2018/7/29 8:23,6.4,3,6.4,3,10.3,3
2018/7/29 8:24,6.5,3,6.5,3,13.6,4
2018/7/29 8:25,6.1,3,6.5,3,9.1,4
2018/7/29 8:26,6.2,3,6.2,3,9.9,4
2018/7/29 8:27,6.4,3,6.4,3,10.7,4
2018/7/29 8:28,6.5,3,6.5,3,8.5,3
2018/7/29 8:29,6.7,3,6.7,3,8.5,2
2018/7/29 8:30,6.6,3,6.7,3,10.3,3
2018/7/29 8:31,6.7,3,6.8,3,13.1,4
2018/7/29 8:32,6.8,3,6.8,3,12.1,4
2018/7/29 8:33,6.8,3,6.9,3,8.1,3
2018/7/29 8:34,6.6,3,6.8,3,10.6,4
2018/7/29 8:35,6.6,3,6.6,3,10.7,4
2018/7/29 8:36,6.4,3,6.6,3,8.5,3
2018/7/29 8:37,6.3,3,6.4,3,12.1,5
2018/7/29 8:38,6.6,3,6.6,3,12.1,4
2018/7/29 8:39,6.8,3,6.8,3,11.8,3
2018/7/29 8:40,6.8,3,6.9,3,9.8,3
2018/7/29 8:41,6.5,3,6.8,3,7,4
2018/7/29 8:42,6.3,3,6.4,3,7.1,4
2018/7/29 8:43,6.3,3,6.3,3,9.8,3
2018/7/29 8:44,6.2,3,6.3,3,8.7,3
2018/7/29 8:45,6.3,3,6.3,3,10.6,2
2018/7/29 8:46,6.4,3,6.4,3,9.8,3
2018/7/29 8:47,6.4,3,6.4,3,11.4,3
2018/7/29 8:48,6.2,3,6.4,3,10,3
2018/7/29 8:49,6,3,6.2,3,9.3,4
2018/7/29 8:50,6,3,6,3,11.1,3
2018/7/29 8:51,6.2,3,6.2,3,11,3
2018/7/29 8:52,6.2,3,6.2,3,7.6,4
2018/7/29 8:53,5.9,3,6.2,3,6.5,3
2018/7/29 8:54,5.8,3,6,3,7.9,3
2018/7/29 8:55,5.8,3,5.9,3,11.9,2
2018/7/29 8:56,5.8,3,5.9,3,11.9,3
2018/7/29 8:57,5.7,3,5.8,3,8.6,3
2018/7/29 8:58,5.6,3,5.7,3,8.9,3
2018/7/29 8:59,5.3,3,5.6,3,6.4,3
2018/7/29 9:00,5.4,3,5.4,3,10.1,5
2018/7/29 9:01,5.2,3,5.3,3,7,5
2018/7/29 9:02,5.3,3,5.3,3,8.7,2
2018/7/29 9:03,5.6,3,5.6,3,7.6,5
2018/7/29 9:04,5.6,4,5.6,3,6.9,4
2018/7/29 9:05,5.3,4,5.6,3,5.6,3
2018/7/29 9:06,5,4,5.2,3,6.9,5
2018/7/29 9:07,4.9,4,5,3,6,4
2018/7/29 9:08,4.8,4,4.9,3,9.1,3
2018/7/29 9:09,4.9,4,4.9,3,7.4,4
2018/7/29 9:10,4.6,4,4.9,3,6.2,2
2018/7/29 9:11,4.5,3,4.6,3,5.8,3
2018/7/29 9:12,4.3,3,4.5,3,6.3,4
2018/7/29 9:13,4.2,3,4.3,4,6.5,3
2018/7/29 9:14,4.1,3,4.2,4,5.1,4
2018/7/29 9:15,4.1,3,4.1,4,5.5,3
2018/7/29 9:16,4.2,3,4.2,4,6.8,4
2018/7/29 9:17,4.1,3,4.2,4,6.5,3
2018/7/29 9:18,4,4,4.1,4,6,5
2018/7/29 9:19,3.7,4,4,4,5.7,4
2018/7/29 9:20,3.7,4,3.7,4,4.2,4
2018/7/29 9:21,3.7,4,3.7,3,5.7,3
2018/7/29 9:22,3.8,4,3.8,3,6.2,5
2018/7/29 9:23,3.6,4,3.8,3,5.6,4
2018/7/29 9:24,3.7,4,3.7,3,6.2,5
2018/7/29 9:25,3.7,4,3.8,3,5.8,5
2018/7/29 9:26,3.5,4,3.7,3,4.9,3
2018/7/29 9:27,3.5,4,3.6,3,5.6,3
2018/7/29 9:28,3.5,3,3.5,4,5.6,3
2018/7/29 9:29,3.5,3,3.5,4,5.1,3
2018/7/29 9:30,3.6,3,3.6,4,5.8,5
2018/7/29 9:31,3.8,3,3.8,4,7.7,4
2018/7/29 9:32,3.8,3,3.8,4,7.5,3
2018/7/29 9:33,3.7,3,3.8,4,6.5,5
2018/7/29 9:34,3.8,3,3.8,4,8.3,4
2018/7/29 9:35,3.8,3,3.8,3,7.8,4
2018/7/29 9:36,4.1,4,4.1,4,8.9,5
2018/7/29 9:37,4.2,4,4.2,4,7.6,5
2018/7/29 9:38,4.2,4,4.3,4,6.1,4
2018/7/29 9:39,4.4,4,4.4,4,6.7,5
2018/7/29 9:40,4.4,4,4.4,4,5.8,5
2018/7/29 9:41,4.1,4,4.4,4,5.2,5
2018/7/29 9:42,4.1,4,4.1,4,6.7,4
2018/7/29 9:43,4.1,4,4.2,4,5.8,6
2018/7/29 9:44,4,4,4.1,4,5.8,5
2018/7/29 9:45,3.9,4,3.9,4,4.9,4
2018/7/29 9:46,3.6,4,3.9,4,5.6,6
2018/7/29 9:47,3.6,4,3.6,4,4.5,4
2018/7/29 9:48,3.7,4,3.7,4,9.1,5
2018/7/29 9:49,3.5,4,3.7,4,5,3
2018/7/29 9:50,3.5,4,3.5,4,4.7,3
2018/7/29 9:51,3.5,4,3.5,4,4.8,2
2018/7/29 9:52,3.6,4,3.6,4,6.5,5
2018/7/29 9:53,3.7,4,3.7,4,5.7,5
2018/7/29 9:54,3.7,4,3.7,4,5.6,3
2018/7/29 9:55,3.7,4,3.7,4,6.4,3
2018/7/29 9:56,3.6,4,3.7,4,5,3
2018/7/29 9:57,3.7,4,3.7,4,7.8,5
2018/7/29 9:58,3.7,4,3.7,4,7.1,6
2018/7/29 9:59,3.7,4,3.7,4,5.4,5
2018/7/29 10:00,3.9,4,3.9,4,7.2,5
2018/7/29 10:01,3.9,4,3.9,4,6.1,5
2018/7/29 10:02,3.9,4,3.9,4,6.1,5
2018/7/29 10:03,3.9,4,3.9,4,6.4,5
2018/7/29 10:04,3.9,4,3.9,4,5.6,3
2018/7/29 10:05,3.7,5,3.9,4,5,3
2018/7/29 10:06,3.8,5,3.8,4,6.2,3
2018/7/29 10:07,3.8,5,3.9,4,6.1,3
2018/7/29 10:08,3.8,5,3.8,4,8.4,5
2018/7/29 10:09,3.8,5,3.8,4,8.3,5
2018/7/29 10:10,3.9,4,3.9,4,7.8,4
2018/7/29 10:11,4.2,5,4.2,5,9.2,5
2018/7/29 10:12,4,5,4.1,5,6.5,4
2018/7/29 10:13,4.2,4,4.2,5,8.2,4
2018/7/29 10:14,4.4,5,4.4,4,7.9,5
2018/7/29 10:15,4.5,5,4.5,5,6.1,6
2018/7/29 10:16,4.6,4,4.6,4,7.2,3
2018/7/29 10:17,4.5,5,4.6,4,5.2,4
2018/7/29 10:18,4.4,5,4.5,4,5.8,4
2018/7/29 10:19,4.5,5,4.5,4,7.1,4
2018/7/29 10:20,4.3,5,4.5,4,6.3,5
2018/7/29 10:21,4.2,4,4.3,4,7.2,3
2018/7/29 10:22,4.3,4,4.3,4,7.6,5
2018/7/29 10:23,4.3,5,4.4,4,6.4,5
2018/7/29 10:24,4.1,5,4.3,4,6.3,4
2018/7/29 10:25,4.3,4,4.3,4,7.6,3
2018/7/29 10:26,4.5,5,4.5,4,9.9,5
2018/7/29 10:27,4.6,4,4.6,5,8.1,5
2018/7/29 10:28,4.6,5,4.6,5,6.8,3
2018/7/29 10:29,4.6,5,4.6,5,6.9,4
2018/7/29 10:30,4.6,5,4.6,5,7.6,3
2018/7/29 10:31,4.6,5,4.6,5,9.1,5
2018/7/29 10:32,4.6,5,4.6,5,7.9,4
2018/7/29 10:33,4.7,5,4.7,5,8.7,5
2018/7/29 10:34,4.7,5,4.8,5,6.4,5
2018/7/29 10:35,4.6,5,4.8,5,6.4,5
2018/7/29 10:36,4.4,5,4.6,5,7,4
2018/7/29 10:37,4.4,5,4.4,5,7.9,5
2018/7/29 10:38,4.6,5,4.6,5,7.8,5
2018/7/29 10:39,4.7,5,4.7,5,8.9,4
2018/7/29 10:40,5.1,5,5.1,5,9.3,4
2018/7/29 10:41,5,5,5.1,5,9,3
2018/7/29 10:42,5,5,5,5,7.6,5
2018/7/29 10:43,4.7,5,5,5,6.5,4
2018/7/29 10:44,5,5,5,5,10.8,5
2018/7/29 10:45,5.2,5,5.2,5,8.2,3
2018/7/29 10:46,5.4,5,5.5,5,9.7,5
2018/7/29 10:47,5.5,5,5.5,5,8.6,4
2018/7/29 10:48,5.4,5,5.5,5,6.3,5
2018/7/29 10:49,5.2,5,5.4,5,7.4,3
2018/7/29 10:50,4.8,5,5.1,5,5.2,4
2018/7/29 10:51,4.8,5,4.8,5,6.8,3
2018/7/29 10:52,4.9,5,4.9,5,8.6,5
2018/7/29 10:53,5.1,5,5.1,5,7.8,6
2018/7/29 10:54,4.8,5,5.1,5,4.7,3
2018/7/29 10:55,4.5,5,4.7,5,6.2,5
2018/7/29 10:56,4.2,5,4.5,5,7.1,3
2018/7/29 10:57,4,5,4.2,5,5.5,5
2018/7/29 10:58,4,5,4,5,6.4,5
2018/7/29 10:59,4.1,5,4.1,5,6.7,5
2018/7/29 11:00,4.2,5,4.2,5,6,3
2018/7/29 11:01,4.3,5,4.3,5,7.5,4
2018/7/29 11:02,4.2,5,4.3,5,7.2,4
2018/7/29 11:03,4.2,4,4.2,5,8.7,5
2018/7/29 11:04,4.3,4,4.3,5,7.1,4
2018/7/29 11:05,4.4,4,4.4,5,6.9,4